This is the latest recevied weather packets stored in our database for station/object WB9FIU. If no packets are shown the sender has not sent any weather packets the latest 1 day(s).
| Time | Temp. | Humidity | Pressure | Rain* | Wind** | Luminosity | Snow |
|---|---|---|---|---|---|---|---|
| 1778052842 | 8.33° C | 92% | 1008.1 hPa | 0.51 mm | - | - | - |
| 1778052723 | 8.33° C | 91% | 1008.1 hPa | 0.51 mm | - | - | - |
| 1778052481 | 7.78° C | 91% | 1007.9 hPa | 0.51 mm | - | - | - |
| 1778052421 | 7.78° C | 91% | 1007.8 hPa | 0.51 mm | - | - | - |
| 1778052362 | 8.33° C | 91% | 1007.8 hPa | 0.51 mm | - | - | - |
| 1778052301 | 8.33° C | 91% | 1007.7 hPa | 0.51 mm | - | - | - |
| 1778052241 | 8.33° C | 91% | 1007.7 hPa | 0.51 mm | - | - | - |
| 1778052122 | 8.33° C | 91% | 1007.7 hPa | 0.76 mm | - | - | - |
| 1778051882 | 8.33° C | 91% | 1007.9 hPa | 0.76 mm | - | - | - |
| 1778051581 | 7.78° C | 90% | 1008 hPa | 1.02 mm | - | - | - |
| 1778051521 | 8.33° C | 90% | 1008 hPa | 1.02 mm | - | - | - |
| 1778051461 | 8.33° C | 90% | 1007.9 hPa | 1.02 mm | - | - | - |
| 1778051341 | 8.33° C | 90% | 1007.8 hPa | 1.27 mm | - | - | - |
| 1778051281 | 7.78° C | 90% | 1007.8 hPa | 1.27 mm | - | - | - |
| 1778051041 | 7.78° C | 89% | 1007.6 hPa | 1.27 mm | - | - | - |
| 1778050021 | 7.78° C | 90% | 1007.7 hPa | 1.78 mm | - | - | - |
| 1778049901 | 7.78° C | 90% | 1007.8 hPa | 1.78 mm | - | - | - |
| 1778049781 | 8.33° C | 90% | 1007.8 hPa | 1.52 mm | - | - | - |
| 1778049723 | 8.33° C | 90% | 1007.7 hPa | 1.52 mm | - | - | - |
| 1778049663 | 8.33° C | 90% | 1007.8 hPa | 1.52 mm | - | - | - |
| 1778049542 | 7.78° C | 90% | 1007.8 hPa | 1.52 mm | - | - | - |
| 1778049421 | 8.33° C | 90% | 1007.9 hPa | 1.52 mm | - | - | - |
| 1778049361 | 8.33° C | 90% | 1008 hPa | 1.52 mm | - | - | - |
| 1778049301 | 8.33° C | 90% | 1008 hPa | 1.27 mm | - | - | - |
| 1778049241 | 8.33° C | 89% | 1008 hPa | 1.27 mm | - | - | - |
* Rain latest hour (hover to see other rain measurements)
** Current wind speed in m/s (hover to see current wind gust speed)